TimeMDT,TemperatureF,Dew PointF,Humidity,Sea Level PressureIn,VisibilityMPH,Wind Direction,Wind SpeedMPH,Gust SpeedMPH,PrecipitationIn,Events,Conditions,WindDirDegrees,DateUTC
12:53 AM,32.0,15.1,50,29.80,10.0,ENE,5.8,-,N/A,,Clear,70,2013-03-16 06:53:00
1:53 AM,34.0,15.1,46,29.79,10.0,Calm,Calm,-,N/A,,Partly Cloudy,0,2013-03-16 07:53:00
2:53 AM,30.9,15.1,52,29.79,10.0,East,4.6,-,N/A,,Mostly Cloudy,90,2013-03-16 08:53:00
3:53 AM,30.0,18.0,61,29.81,10.0,North,9.2,-,N/A,,Overcast,360,2013-03-16 09:53:00
4:53 AM,28.0,21.9,78,29.81,10.0,North,4.6,-,N/A,,Overcast,10,2013-03-16 10:53:00
5:53 AM,27.0,21.0,78,29.82,10.0,NNE,4.6,-,N/A,,Overcast,20,2013-03-16 11:53:00
6:20 AM,26.6,23.0,86,30.09,2.5,NE,6.9,-,0.00,Snow,Light Snow,50,2013-03-16 12:20:00
6:28 AM,26.6,23.0,86,30.09,5.0,North,3.5,-,0.00,Snow,Light Snow,360,2013-03-16 12:28:00
6:53 AM,28.9,25.0,85,29.81,8.0,NE,6.9,-,0.00,,Overcast,50,2013-03-16 12:53:00
7:53 AM,28.0,26.1,92,29.86,10.0,SSE,4.6,-,N/A,,Overcast,160,2013-03-16 13:53:00
8:53 AM,30.0,26.1,85,29.85,10.0,SE,4.6,-,N/A,,Overcast,140,2013-03-16 14:53:00
9:53 AM,30.9,27.0,85,29.83,10.0,South,9.2,-,N/A,,Overcast,180,2013-03-16 15:53:00
10:29 AM,30.2,26.6,86,30.07,2.0,SW,4.6,-,0.00,Snow,Light Snow,230,2013-03-16 16:29:00
10:34 AM,30.2,26.6,86,30.07,0.8,South,3.5,-,0.00,Snow,Light Snow,170,2013-03-16 16:34:00
10:43 AM,30.2,26.6,86,30.06,0.5,South,6.9,-,0.01,Fog-Snow,Snow,170,2013-03-16 16:43:00
10:53 AM,30.0,27.0,88,29.84,2.0,South,6.9,-,0.01,Snow,Light Snow,180,2013-03-16 16:53:00
11:01 AM,30.2,26.6,86,30.05,6.0,South,6.9,-,0.00,Snow,Light Snow,170,2013-03-16 17:01:00
11:16 AM,30.2,26.6,86,30.05,2.5,South,5.8,-,0.00,Snow,Light Snow,170,2013-03-16 17:16:00
11:25 AM,30.2,26.6,86,30.05,2.5,SW,3.5,-,0.00,Snow,Light Snow,220,2013-03-16 17:25:00
11:39 AM,30.2,26.6,86,30.05,1.8,Calm,Calm,-,0.00,Snow,Light Snow,0,2013-03-16 17:39:00
11:53 AM,30.0,27.0,88,29.82,2.0,Calm,Calm,-,0.00,Snow,Light Snow,0,2013-03-16 17:53:00
12:02 PM,30.2,26.6,86,30.04,1.2,Calm,Calm,-,0.00,Snow,Light Snow,0,2013-03-16 18:02:00
12:43 PM,32.0,26.6,80,30.03,3.0,Calm,Calm,-,0.01,Snow,Light Snow,0,2013-03-16 18:43:00
12:53 PM,32.0,27.0,82,29.82,2.5,Calm,Calm,-,0.01,Snow,Light Snow,0,2013-03-16 18:53:00
1:03 PM,33.8,26.6,75,30.02,7.0,Variable,3.5,-,0.00,,Overcast,0,2013-03-16 19:03:00
1:53 PM,34.0,21.9,61,29.75,10.0,West,4.6,-,0.00,,Overcast,260,2013-03-16 19:53:00
2:11 PM,32.0,24.8,75,29.99,2.5,West,11.5,-,0.00,Snow,Light Snow,280,2013-03-16 20:11:00
2:19 PM,30.2,26.6,86,29.99,1.0,NW,5.8,-,0.00,Snow,Light Snow,320,2013-03-16 20:19:00
2:38 PM,32.0,26.6,80,29.98,3.0,Calm,Calm,-,0.01,Snow,Light Snow,0,2013-03-16 20:38:00
2:53 PM,32.0,27.0,82,29.76,5.0,SSE,4.6,-,0.01,Snow,Light Snow,160,2013-03-16 20:53:00
3:01 PM,30.2,26.6,86,29.96,9.0,SSE,8.1,-,0.00,,Overcast,160,2013-03-16 21:01:00
3:53 PM,34.0,25.0,70,29.75,10.0,NW,6.9,-,0.00,,Mostly Cloudy,320,2013-03-16 21:53:00
4:09 PM,30.2,24.8,80,29.97,1.5,NW,20.7,26.5,0.00,Snow,Light Snow,320,2013-03-16 22:09:00
4:13 PM,28.4,26.6,93,29.98,0.5,NW,17.3,26.5,0.00,Fog-Snow,Snow,320,2013-03-16 22:13:00
4:17 PM,28.4,26.6,93,29.99,0.2,NW,25.3,32.2,0.00,Fog-Snow,Heavy Snow,310,2013-03-16 22:17:00
4:33 PM,30.2,26.6,86,29.96,1.0,NNE,9.2,-,0.02,Snow,Light Snow,20,2013-03-16 22:33:00
4:36 PM,30.2,24.8,80,29.97,3.0,NNE,9.2,-,0.02,Snow,Light Snow,30,2013-03-16 22:36:00
4:46 PM,30.2,24.8,80,29.96,10.0,Variable,3.5,-,0.02,,Overcast,0,2013-03-16 22:46:00
4:53 PM,32.0,21.9,66,29.78,10.0,North,8.1,-,0.02,,Overcast,10,2013-03-16 22:53:00
5:36 PM,33.8,23.0,65,29.96,10.0,Variable,4.6,-,N/A,,Mostly Cloudy,0,2013-03-16 23:36:00
5:53 PM,30.9,24.1,76,29.80,10.0,NNE,8.1,-,N/A,,Overcast,20,2013-03-16 23:53:00
6:37 PM,30.2,24.8,80,29.97,10.0,NE,5.8,-,N/A,,Overcast,50,2013-03-17 00:37:00
6:53 PM,30.9,23.0,72,29.79,10.0,NNE,5.8,-,N/A,,Overcast,30,2013-03-17 00:53:00
7:53 PM,30.0,21.0,69,29.80,10.0,Variable,3.5,-,N/A,,Mostly Cloudy,0,2013-03-17 01:53:00
8:53 PM,28.0,23.0,81,29.81,10.0,SW,6.9,-,N/A,,Mostly Cloudy,230,2013-03-17 02:53:00
9:53 PM,27.0,23.0,85,29.80,10.0,NNE,4.6,-,N/A,,Mostly Cloudy,30,2013-03-17 03:53:00
10:26 PM,26.6,21.2,80,29.99,3.0,NNW,5.8,-,0.00,Snow,Light Snow,340,2013-03-17 04:26:00
10:28 PM,26.6,21.2,80,29.98,1.5,NNW,4.6,-,0.00,Snow,Light Snow,340,2013-03-17 04:28:00
10:35 PM,26.6,24.8,93,29.99,0.5,North,4.6,-,0.01,Fog-Snow,Snow,350,2013-03-17 04:35:00
10:46 PM,24.8,24.8,100,29.97,2.5,NE,5.8,-,0.02,Snow,Light Snow,40,2013-03-17 04:46:00
10:53 PM,25.0,23.0,92,29.82,8.0,NNE,4.6,-,0.02,,Overcast,30,2013-03-17 04:53:00
11:00 PM,24.8,23.0,93,29.97,10.0,NE,4.6,-,N/A,,Mostly Cloudy,50,2013-03-17 05:00:00
11:41 PM,24.8,21.2,86,29.96,5.0,NNE,4.6,-,0.00,Snow,Light Snow,30,2013-03-17 05:41:00
11:51 PM,24.8,21.2,86,29.95,10.0,NNE,6.9,-,0.00,,Scattered Clouds,30,2013-03-17 05:51:00
11:53 PM,24.1,21.0,88,29.81,10.0,NNE,8.1,-,0.00,,Scattered Clouds,20,2013-03-17 05:53:00